Location: Boiro
(42.6475°N, 8.8834°W)
Time: 07:55:22
(UTC+01:00)

SR - Pass Details

Date: 08 December 2021
Orbit: 583 x 872 km, 66.7° (Epoch: 16 January)

Event Time Altitude Azimuth Distance (km) Brightness Sun altitude
Rises 00:37:54 0° 229° (SW) 2,974 - -67.6°
Reaches altitude 10° 00:40:23 10° 237° (WSW) 2,024 - -67.8°
Maximum altitude 00:44:38 39° 306° (NW) 922 - -68.2°
Drops below altitude 10° 00:48:42 10° 17° (NNE) 1,932 - -68.5°
Sets 00:51:01 0° 25° (NNE) 2,822 - -68.7°
